User: anonymous   Login
Location: South Tamworth Observatory
(43.8246°N, 71.3026°W)
Time: 08:33:27
(UTC-04:00)
Language:

Cosmos 1844 - Orbit

View from above orbital plane
View from above orbital plane
View from above satellite
View from above satellite

Ground track
Ground track

The orbit data is extracted from the following two-line orbital elements,

1 17973U 87041A   15182.67873448 -.00000263  00000-0 -11259-3 0  9995
2 17973 070.8982 343.5943 0028911 123.0274 290.5236 14.13997671451863
Epoch (UTC): 01 July 2015 16:17:22
Eccentricity: 0.0028911
inclination: 70.8982°
perigee height: 825 km
apogee height: 866 km
right ascension of ascending node: 343.5943°
argument of perigee: 123.0274°
revolutions per day: 14.13997671
mean anomaly at epoch: 290.5236°
orbit number at epoch: 45186

The dashed part of the orbit path shows where the satellite is in the earth's shadow,  

DLR